METOP-B

Last updated on Fri Jul 11 2025 00:02:20 GMT+0000 (Coordinated Universal Time)

1 38771U 12049A 25191.57981322 .00000074 00000+0 53280-4 0 9999 2 38771 98.5754 244.9216 0000514 131.4784 228.6438 14.21462962664738
UTC large
Height (km)
Speed (km/s)
/
Latitude / Longitude
Inclination (degrees)
Orbital Period (minutes)
Azimuth
Elevation
Range (km)
Doppler Factor

Next 0 passes for location: London (51.5072 / 0.1276)

Sorry there are no passes over London.